Details From KSAN - San Diego Intl
To KPSP - Palm Springs Intl
Flight Number -
Tags generated
Created
Modified
Stats Distance 74 nm / 138 km
Max Altitude 2,500 ft / 762 m
Waypoints 3
Social Downloads 0
Likes 0
Share VATSIM

Download

Looking for another format? Having issues loading an existing format? Contact us
Advertisement - Login to hide

Notes

Basic altitude profile: - Ascent Rate: 2500ft/min - Ascent Speed: 250kts - Cruise Altitude: 35000ft - Cruise Speed: 420kts - Descent Rate: 1500ft/min - Descent Speed: 250kts Options: - Use NATs: yes - Use PACOTS: yes - Use low airways: yes - Use high airways: yes

Route

KSAN HAPPE KPSP

ID Type Via Altitude Latitude Longitude Leg Dist Tot Dist Heading (true) Name
O KSAN APT - 0 ft / 0 m 32.73356˚ -117.18966˚ - 0 nm - San Diego Intl
HAPPE FIX - 2,500 ft / 762 m 33.67163˚ -116.65659˚ 62 nm 62 nm 25° / 26° -
O KPSP APT - 0 ft / 0 m 33.82968˚ -116.50622˚ 12 nm 74 nm 38° / 38° Palm Springs Intl

Altitude Profile

Advertisement - Login to hide

KSAN

Details ICAO KSAN (SAN)
Name San Diego Intl
Region United States
Timezone America/Los_Angeles (UTC-7.0)
Stats Elevation 17 ft / 5 m (AMSL)
Location 32.733556° -117.189658°
Runways 1
Magnetic Variation 11.487° E

METAR

KSAN 261951Z 22010KT 10SM BKN032 BKN200 19/10 A3006 RMK AO2 SLP178 T01890100

Decode

TAF

TAF AMD KSAN 262015Z 2620/2724 25011KT P6SM SCT025 BKN040 FM270300 25005KT P6SM BKN020 FM271800 27009KT P6SM SCT025 BKN040

Decode

Departure Runways

ID Width Length Bearing (true) Bearing (mag) Surface Threshold Offset Overrun Length
09 200 ft / 61 m 9,387 ft / 2,861 m 106.07° 94.58° Asphalt 699 ft / 213 m 269 ft / 82 m
27 200 ft / 61 m 9,387 ft / 2,861 m 286.08° 274.59° Asphalt 1,811 ft / 552 m 0 ft / 0 m

KPSP

Details ICAO KPSP (PSP)
Name Palm Springs Intl
Region United States
Timezone America/Los_Angeles (UTC-7.0)
Stats Elevation 477 ft / 145 m (AMSL)
Location 33.829677° -116.506218°
Runways 2
Magnetic Variation 11.540° E

METAR

KPSP 261953Z 32008G24KT 270V340 10SM CLR 28/04 A2986 RMK AO2 PK WND 33028/1921 SLP107 T02780044 $

Decode

TAF

KPSP 261734Z 2618/2718 33015G25KT P6SM SKC FM262000 32020G33KT 6SM BLDU SKC FM270800 30009KT P6SM SKC

Decode

Destination Runways

ID Width Length Bearing (true) Bearing (mag) Surface Threshold Offset Overrun Length
13L 75 ft / 23 m 4,958 ft / 1,511 m 143.52° 131.98° Asphalt 0 ft / 0 m 151 ft / 46 m
13R 151 ft / 46 m 10,012 ft / 3,052 m 143.52° 131.98° Asphalt 2,999 ft / 914 m 200 ft / 61 m
31L 151 ft / 46 m 10,012 ft / 3,052 m 323.53° 311.99° Asphalt 1,499 ft / 457 m 200 ft / 61 m
31R 75 ft / 23 m 4,958 ft / 1,511 m 323.53° 311.99° Asphalt 0 ft / 0 m 151 ft / 46 m

Popular Alternatives